Date_UTC,IAGA,MLT,MLAT,IGRF_DECL,SZA,N,E,Z
2015-08-15 08:00:00,LYR,10.45,75.64,7.90,67.79,6.6,-6.7,34.5
2015-08-15 08:01:00,LYR,10.47,75.64,7.90,67.75,7.3,-1.0,35.3
2015-08-15 08:02:00,LYR,10.48,75.64,7.90,67.71,4.3,-1.6,35.8
2015-08-15 08:03:00,LYR,10.50,75.64,7.90,67.67,1.1,1.2,37.6
2015-08-15 08:04:00,LYR,10.52,75.64,7.90,67.64,0.0,3.4,35.8
2015-08-15 08:05:00,LYR,10.53,75.64,7.90,67.60,1.1,3.4,35.1
2015-08-15 08:06:00,LYR,10.55,75.64,7.90,67.56,3.6,5.3,39.3
2015-08-15 08:07:00,LYR,10.57,75.64,7.90,67.52,6.6,9.5,40.6
2015-08-15 08:08:00,LYR,10.58,75.64,7.90,67.49,6.8,8.8,40.6
2015-08-15 08:09:00,LYR,10.60,75.64,7.90,67.45,11.1,10.9,42.3
2015-08-15 08:10:00,LYR,10.62,75.64,7.90,67.41,10.6,9.7,42.5
2015-08-15 08:11:00,LYR,10.63,75.64,7.90,67.38,11.4,13.7,43.2
2015-08-15 08:12:00,LYR,10.65,75.64,7.90,67.34,11.7,14.6,42.2
2015-08-15 08:13:00,LYR,10.67,75.64,7.90,67.31,13.5,14.0,39.6
2015-08-15 08:14:00,LYR,10.68,75.64,7.90,67.27,13.4,8.8,34.0
2015-08-15 08:15:00,LYR,10.70,75.64,7.90,67.24,14.2,4.4,29.8
2015-08-15 08:16:00,LYR,10.72,75.64,7.90,67.20,16.3,0.7,29.9
2015-08-15 08:17:00,LYR,10.73,75.64,7.90,67.16,21.7,-5.3,31.2
2015-08-15 08:18:00,LYR,10.75,75.64,7.90,67.13,22.0,-9.6,32.5
2015-08-15 08:19:00,LYR,10.77,75.64,7.90,67.09,16.7,0.8,34.2
2015-08-15 08:20:00,LYR,10.79,75.64,7.90,67.06,9.2,13.5,36.0
2015-08-15 08:21:00,LYR,10.80,75.64,7.90,67.03,3.6,22.3,37.3
2015-08-15 08:22:00,LYR,10.82,75.64,7.90,66.99,-0.8,21.7,35.1
2015-08-15 08:23:00,LYR,10.84,75.64,7.90,66.96,3.5,14.1,30.4
2015-08-15 08:24:00,LYR,10.85,75.64,7.90,66.92,12.5,6.5,26.6
2015-08-15 08:25:00,LYR,10.87,75.64,7.90,66.89,16.0,2.1,25.1
2015-08-15 08:26:00,LYR,10.89,75.64,7.90,66.86,14.9,5.1,28.3
2015-08-15 08:27:00,LYR,10.90,75.64,7.90,66.82,10.0,11.1,32.6
2015-08-15 08:28:00,LYR,10.92,75.64,7.90,66.79,3.6,17.0,34.7
2015-08-15 08:29:00,LYR,10.94,75.64,7.90,66.76,-60.2,-22.9,11.4
2015-08-15 08:30:00,LYR,10.95,75.64,7.90,66.72,-25.9,-62.8,23.8
2015-08-15 08:31:00,LYR,10.97,75.64,7.90,66.69,53.0,-48.6,49.0
2015-08-15 08:32:00,LYR,10.99,75.64,7.90,66.66,118.3,-40.5,78.2
2015-08-15 08:33:00,LYR,11.00,75.64,7.90,66.62,166.4,-22.9,118.8
2015-08-15 08:34:00,LYR,11.02,75.64,7.90,66.59,159.8,-7.0,147.9
2015-08-15 08:35:00,LYR,11.04,75.64,7.90,66.56,131.2,-53.4,162.2
2015-08-15 08:36:00,LYR,11.05,75.64,7.90,66.53,191.3,-60.3,201.6
2015-08-15 08:37:00,LYR,11.07,75.64,7.90,66.50,227.0,1.4,243.8
2015-08-15 08:38:00,LYR,11.09,75.64,7.90,66.46,277.4,10.5,264.3
2015-08-15 08:39:00,LYR,11.10,75.64,7.90,66.43,332.8,3.4,263.2
2015-08-15 08:40:00,LYR,11.12,75.64,7.90,66.40,343.8,-1.6,253.3
2015-08-15 08:41:00,LYR,11.14,75.64,7.90,66.37,373.0,38.1,260.5
2015-08-15 08:42:00,LYR,11.15,75.64,7.90,66.34,345.3,29.4,228.7
2015-08-15 08:43:00,LYR,11.17,75.64,7.90,66.31,363.8,-22.3,193.3
2015-08-15 08:44:00,LYR,11.19,75.64,7.90,66.28,377.8,-33.5,175.7
2015-08-15 08:45:00,LYR,11.20,75.64,7.90,66.25,422.1,-39.5,163.2
2015-08-15 08:46:00,LYR,11.22,75.64,7.90,66.22,421.7,-80.1,150.8
2015-08-15 08:47:00,LYR,11.24,75.64,7.90,66.19,416.3,-83.0,173.9
2015-08-15 08:48:00,LYR,11.25,75.64,7.90,66.16,404.9,-42.9,188.1
2015-08-15 08:49:00,LYR,11.27,75.64,7.90,66.13,380.2,-49.3,154.6
2015-08-15 08:50:00,LYR,11.29,75.64,7.90,66.10,380.7,-68.7,163.1
2015-08-15 08:51:00,LYR,11.30,75.64,7.90,66.07,403.1,-60.5,186.9
2015-08-15 08:52:00,LYR,11.32,75.64,7.90,66.04,410.6,-73.8,172.0
2015-08-15 08:53:00,LYR,11.34,75.64,7.90,66.01,403.4,-112.3,166.9
2015-08-15 08:54:00,LYR,11.35,75.64,7.90,65.99,410.6,-43.2,192.6
2015-08-15 08:55:00,LYR,11.37,75.64,7.90,65.96,398.2,-20.0,172.8
2015-08-15 08:56:00,LYR,11.39,75.64,7.90,65.93,405.6,-21.6,166.0
2015-08-15 08:57:00,LYR,11.40,75.64,7.90,65.90,397.1,-55.9,146.3
2015-08-15 08:58:00,LYR,11.42,75.64,7.90,65.87,411.0,-80.3,136.6
2015-08-15 08:59:00,LYR,11.44,75.64,7.90,65.85,404.0,-83.1,127.4
2015-08-15 09:00:00,LYR,11.45,75.64,7.90,65.82,386.9,-96.2,109.7
2015-08-15 09:01:00,LYR,11.47,75.64,7.90,65.79,375.9,-93.6,130.3
2015-08-15 09:02:00,LYR,11.49,75.64,7.90,65.76,363.1,-68.1,139.6
2015-08-15 09:03:00,LYR,11.51,75.64,7.90,65.74,339.3,-60.0,132.2
2015-08-15 09:04:00,LYR,11.52,75.64,7.90,65.71,334.9,-106.9,108.7
2015-08-15 09:05:00,LYR,11.54,75.64,7.90,65.69,354.8,-179.5,101.8
2015-08-15 09:06:00,LYR,11.56,75.64,7.90,65.66,373.2,-113.9,190.3
2015-08-15 09:07:00,LYR,11.57,75.64,7.90,65.63,387.9,-5.7,218.6
2015-08-15 09:08:00,LYR,11.59,75.64,7.90,65.61,355.1,-34.4,186.5
2015-08-15 09:09:00,LYR,11.61,75.64,7.90,65.58,341.2,-60.4,172.1
2015-08-15 09:10:00,LYR,11.62,75.64,7.90,65.56,305.5,-64.7,161.2
2015-08-15 09:11:00,LYR,11.64,75.64,7.90,65.53,288.5,-56.4,146.0
2015-08-15 09:12:00,LYR,11.66,75.64,7.90,65.51,266.8,-57.1,143.3
2015-08-15 09:13:00,LYR,11.67,75.64,7.90,65.48,313.8,-86.3,158.9
2015-08-15 09:14:00,LYR,11.69,75.64,7.90,65.46,359.0,-93.2,189.0
2015-08-15 09:15:00,LYR,11.71,75.64,7.90,65.43,360.9,-64.4,177.7
2015-08-15 09:16:00,LYR,11.72,75.64,7.90,65.41,369.3,-99.5,143.6
2015-08-15 09:17:00,LYR,11.74,75.64,7.90,65.39,375.1,-126.7,106.2
2015-08-15 09:18:00,LYR,11.76,75.64,7.90,65.36,396.4,-191.7,87.3
2015-08-15 09:19:00,LYR,11.77,75.64,7.90,65.34,425.5,-162.2,123.7
2015-08-15 09:20:00,LYR,11.79,75.64,7.90,65.32,412.4,-107.6,100.9
2015-08-15 09:21:00,LYR,11.81,75.64,7.90,65.29,407.8,-114.9,72.5
2015-08-15 09:22:00,LYR,11.82,75.64,7.90,65.27,447.2,-119.2,66.8
2015-08-15 09:23:00,LYR,11.84,75.64,7.90,65.25,470.5,-132.1,95.5
2015-08-15 09:24:00,LYR,11.86,75.64,7.90,65.22,467.6,-105.2,114.7
2015-08-15 09:25:00,LYR,11.87,75.64,7.90,65.20,404.1,-76.1,129.7
2015-08-15 09:26:00,LYR,11.89,75.64,7.90,65.18,359.3,-0.6,124.4
2015-08-15 09:27:00,LYR,11.91,75.64,7.90,65.16,372.3,42.9,72.0
2015-08-15 09:28:00,LYR,11.92,75.64,7.90,65.14,411.5,-5.2,12.4
2015-08-15 09:29:00,LYR,11.94,75.64,7.90,65.12,437.4,-40.8,22.0
2015-08-15 09:30:00,LYR,11.96,75.64,7.90,65.09,440.9,-21.1,74.7
2015-08-15 09:31:00,LYR,11.97,75.64,7.90,65.07,387.8,-28.8,86.2
2015-08-15 09:32:00,LYR,11.99,75.64,7.90,65.05,384.2,-52.0,73.0
2015-08-15 09:33:00,LYR,12.01,75.64,7.90,65.03,370.2,-53.2,76.0
2015-08-15 09:34:00,LYR,12.02,75.64,7.90,65.01,356.3,-62.5,78.4
2015-08-15 09:35:00,LYR,12.04,75.64,7.90,64.99,420.6,-44.4,102.6
2015-08-15 09:36:00,LYR,12.06,75.64,7.90,64.97,421.3,-43.9,99.9
2015-08-15 09:37:00,LYR,12.08,75.64,7.90,64.95,358.6,-76.5,73.5
2015-08-15 09:38:00,LYR,12.09,75.64,7.90,64.93,311.5,-79.8,60.8
2015-08-15 09:39:00,LYR,12.11,75.64,7.90,64.91,290.0,-56.4,45.5
2015-08-15 09:40:00,LYR,12.13,75.64,7.90,64.90,275.0,-19.2,36.8
2015-08-15 09:41:00,LYR,12.14,75.64,7.90,64.88,291.2,16.5,37.4
2015-08-15 09:42:00,LYR,12.16,75.64,7.90,64.86,326.2,13.0,43.9
2015-08-15 09:43:00,LYR,12.18,75.64,7.90,64.84,366.5,-29.7,82.1
2015-08-15 09:44:00,LYR,12.19,75.64,7.90,64.82,370.3,-40.3,117.5
2015-08-15 09:45:00,LYR,12.21,75.64,7.90,64.80,358.6,-16.8,126.5
2015-08-15 09:46:00,LYR,12.23,75.64,7.90,64.79,363.1,15.0,129.1
2015-08-15 09:47:00,LYR,12.24,75.64,7.90,64.77,365.5,-3.9,103.6
2015-08-15 09:48:00,LYR,12.26,75.64,7.90,64.75,370.4,-13.8,84.1
2015-08-15 09:49:00,LYR,12.28,75.64,7.90,64.74,335.9,-27.6,71.2
2015-08-15 09:50:00,LYR,12.29,75.64,7.90,64.72,332.7,-19.5,60.8
2015-08-15 09:51:00,LYR,12.31,75.64,7.90,64.70,341.4,-60.0,25.2
2015-08-15 09:52:00,LYR,12.33,75.64,7.90,64.69,348.9,-72.9,44.3
2015-08-15 09:53:00,LYR,12.34,75.64,7.90,64.67,387.0,-10.4,84.7
2015-08-15 09:54:00,LYR,12.36,75.64,7.90,64.65,452.2,18.1,88.6
2015-08-15 09:55:00,LYR,12.38,75.64,7.90,64.64,485.2,12.7,90.2
2015-08-15 09:56:00,LYR,12.39,75.64,7.90,64.62,482.9,-7.7,85.6
2015-08-15 09:57:00,LYR,12.41,75.64,7.90,64.61,467.3,-34.1,71.6
2015-08-15 09:58:00,LYR,12.43,75.64,7.90,64.59,468.5,-60.5,61.7
2015-08-15 09:59:00,LYR,12.44,75.64,7.90,64.58,463.0,-111.7,34.3
2015-08-15 10:00:00,LYR,12.46,75.64,7.90,64.56,500.6,-129.2,58.6
2015-08-15 10:01:00,LYR,12.48,75.64,7.90,64.55,517.1,-59.0,61.8
2015-08-15 10:02:00,LYR,12.49,75.64,7.90,64.54,487.7,-50.8,33.0
2015-08-15 10:03:00,LYR,12.51,75.64,7.90,64.52,468.9,-52.6,7.8
2015-08-15 10:04:00,LYR,12.53,75.64,7.90,64.51,479.4,-41.1,5.3
2015-08-15 10:05:00,LYR,12.54,75.64,7.90,64.50,476.9,-27.1,3.5
2015-08-15 10:06:00,LYR,12.56,75.64,7.90,64.48,473.1,-39.7,-19.1
2015-08-15 10:07:00,LYR,12.58,75.64,7.90,64.47,493.1,-59.6,-30.8
2015-08-15 10:08:00,LYR,12.59,75.64,7.90,64.46,520.5,-85.5,-33.7
2015-08-15 10:09:00,LYR,12.61,75.64,7.90,64.45,528.6,-83.6,-25.7
2015-08-15 10:10:00,LYR,12.63,75.64,7.90,64.43,547.6,-62.0,1.2
2015-08-15 10:11:00,LYR,12.64,75.64,7.90,64.42,521.5,-46.4,-17.1
2015-08-15 10:12:00,LYR,12.66,75.64,7.90,64.41,488.4,-26.1,4.5
2015-08-15 10:13:00,LYR,12.68,75.64,7.90,64.40,438.0,23.7,12.6
2015-08-15 10:14:00,LYR,12.69,75.64,7.90,64.39,384.3,47.7,-4.8
2015-08-15 10:15:00,LYR,12.71,75.64,7.90,64.38,368.1,73.6,-32.6
2015-08-15 10:16:00,LYR,12.73,75.64,7.90,64.37,367.9,88.2,-74.0
2015-08-15 10:17:00,LYR,12.74,75.64,7.90,64.36,393.2,94.3,-93.0
2015-08-15 10:18:00,LYR,12.76,75.64,7.90,64.35,398.9,81.6,-109.0
2015-08-15 10:19:00,LYR,12.78,75.64,7.90,64.34,416.3,80.4,-116.6
2015-08-15 10:20:00,LYR,12.79,75.64,7.90,64.33,431.7,89.5,-118.3
2015-08-15 10:21:00,LYR,12.81,75.64,7.90,64.32,417.8,80.7,-130.0
2015-08-15 10:22:00,LYR,12.83,75.64,7.90,64.31,416.6,72.7,-139.6
2015-08-15 10:23:00,LYR,12.84,75.64,7.90,64.30,422.0,72.4,-140.4
2015-08-15 10:24:00,LYR,12.86,75.64,7.90,64.29,418.8,61.9,-143.4
2015-08-15 10:25:00,LYR,12.88,75.64,7.90,64.28,410.0,58.2,-150.9
2015-08-15 10:26:00,LYR,12.89,75.64,7.90,64.27,385.7,44.6,-157.5
2015-08-15 10:27:00,LYR,12.91,75.64,7.90,64.26,351.1,33.6,-162.3
2015-08-15 10:28:00,LYR,12.93,75.64,7.90,64.26,336.4,31.8,-163.3
2015-08-15 10:29:00,LYR,12.94,75.64,7.90,64.25,329.8,44.2,-166.2
2015-08-15 10:30:00,LYR,12.96,75.64,7.90,64.24,321.1,52.1,-169.2
2015-08-15 10:31:00,LYR,12.98,75.64,7.90,64.23,311.3,36.3,-176.9
2015-08-15 10:32:00,LYR,12.99,75.64,7.90,64.23,317.3,-6.1,-208.7
2015-08-15 10:33:00,LYR,13.01,75.64,7.90,64.22,346.4,-120.7,-292.5
2015-08-15 10:34:00,LYR,13.03,75.64,7.90,64.21,488.6,-214.2,-292.6
2015-08-15 10:35:00,LYR,13.04,75.64,7.90,64.21,594.6,-114.4,-196.1
2015-08-15 10:36:00,LYR,13.06,75.64,7.90,64.20,536.1,-35.8,-154.1
2015-08-15 10:37:00,LYR,13.08,75.64,7.90,64.20,493.2,-7.7,-146.6
2015-08-15 10:38:00,LYR,13.09,75.64,7.90,64.19,464.1,22.8,-145.4
2015-08-15 10:39:00,LYR,13.11,75.64,7.90,64.19,426.3,33.6,-162.0
2015-08-15 10:40:00,LYR,13.12,75.64,7.90,64.18,427.5,52.0,-167.7
2015-08-15 10:41:00,LYR,13.14,75.64,7.90,64.18,421.4,39.2,-181.2
2015-08-15 10:42:00,LYR,13.16,75.64,7.90,64.17,417.7,40.0,-177.1
2015-08-15 10:43:00,LYR,13.17,75.64,7.90,64.17,387.9,42.8,-178.0
2015-08-15 10:44:00,LYR,13.19,75.64,7.90,64.16,371.8,45.9,-164.4
2015-08-15 10:45:00,LYR,13.21,75.64,7.90,64.16,363.0,72.5,-151.5
2015-08-15 10:46:00,LYR,13.22,75.64,7.90,64.16,338.3,62.4,-157.2
2015-08-15 10:47:00,LYR,13.24,75.64,7.90,64.15,326.8,82.5,-162.0
2015-08-15 10:48:00,LYR,13.26,75.64,7.90,64.15,316.6,121.3,-176.6
2015-08-15 10:49:00,LYR,13.27,75.64,7.90,64.15,291.0,114.4,-209.1
2015-08-15 10:50:00,LYR,13.29,75.64,7.90,64.14,295.5,99.4,-231.0
2015-08-15 10:51:00,LYR,13.31,75.64,7.90,64.14,313.3,96.3,-239.9
2015-08-15 10:52:00,LYR,13.32,75.64,7.90,64.14,315.5,92.6,-234.2
2015-08-15 10:53:00,LYR,13.34,75.64,7.90,64.14,308.9,89.3,-230.9
2015-08-15 10:54:00,LYR,13.35,75.64,7.90,64.14,304.4,86.5,-231.7
2015-08-15 10:55:00,LYR,13.37,75.64,7.90,64.13,297.1,78.3,-230.0
2015-08-15 10:56:00,LYR,13.39,75.64,7.90,64.13,273.1,78.7,-233.7
2015-08-15 10:57:00,LYR,13.40,75.64,7.90,64.13,254.8,83.9,-240.4
2015-08-15 10:58:00,LYR,13.42,75.64,7.90,64.13,252.6,84.3,-241.9
2015-08-15 10:59:00,LYR,13.44,75.64,7.90,64.13,237.5,65.6,-245.3
2015-08-15 11:00:00,LYR,13.45,75.64,7.90,64.13,230.8,58.0,-245.8
2015-08-15 11:01:00,LYR,13.47,75.64,7.90,64.13,217.8,50.2,-248.2
2015-08-15 11:02:00,LYR,13.48,75.64,7.90,64.13,201.9,37.6,-257.7
2015-08-15 11:03:00,LYR,13.50,75.64,7.90,64.13,209.2,50.4,-257.2
2015-08-15 11:04:00,LYR,13.52,75.64,7.90,64.13,211.5,85.8,-247.5
2015-08-15 11:05:00,LYR,13.53,75.64,7.90,64.13,187.4,102.7,-248.1
2015-08-15 11:06:00,LYR,13.55,75.64,7.90,64.13,186.7,138.6,-242.8
2015-08-15 11:07:00,LYR,13.57,75.64,7.90,64.14,207.8,163.1,-231.8
2015-08-15 11:08:00,LYR,13.58,75.64,7.90,64.14,211.6,153.7,-237.7
2015-08-15 11:09:00,LYR,13.60,75.64,7.90,64.14,204.3,130.7,-250.9
2015-08-15 11:10:00,LYR,13.61,75.64,7.90,64.14,213.3,118.7,-257.6
2015-08-15 11:11:00,LYR,13.63,75.64,7.90,64.14,226.4,118.6,-262.2
2015-08-15 11:12:00,LYR,13.65,75.64,7.90,64.15,235.0,91.9,-255.4
2015-08-15 11:13:00,LYR,13.66,75.64,7.90,64.15,242.3,86.5,-228.0
2015-08-15 11:14:00,LYR,13.68,75.64,7.90,64.15,239.4,114.9,-209.7
2015-08-15 11:15:00,LYR,13.69,75.64,7.90,64.16,232.2,148.1,-193.6
2015-08-15 11:16:00,LYR,13.71,75.64,7.90,64.16,202.0,171.6,-173.4
2015-08-15 11:17:00,LYR,13.73,75.64,7.90,64.16,174.4,181.0,-151.7
2015-08-15 11:18:00,LYR,13.74,75.64,7.90,64.17,141.5,182.3,-135.2
2015-08-15 11:19:00,LYR,13.76,75.64,7.90,64.17,112.8,195.8,-120.8
2015-08-15 11:20:00,LYR,13.78,75.64,7.90,64.18,82.8,200.6,-108.9
2015-08-15 11:21:00,LYR,13.79,75.64,7.90,64.18,60.3,211.9,-97.8
2015-08-15 11:22:00,LYR,13.81,75.64,7.90,64.19,40.9,222.5,-88.1
2015-08-15 11:23:00,LYR,13.82,75.64,7.90,64.19,25.3,230.8,-78.7
2015-08-15 11:24:00,LYR,13.84,75.64,7.90,64.20,8.4,232.7,-74.0
2015-08-15 11:25:00,LYR,13.86,75.64,7.90,64.20,-10.8,244.6,-71.6
2015-08-15 11:26:00,LYR,13.87,75.64,7.90,64.21,-22.6,245.9,-67.7
2015-08-15 11:27:00,LYR,13.89,75.64,7.90,64.22,-34.3,257.3,-65.1
2015-08-15 11:28:00,LYR,13.90,75.64,7.90,64.22,-37.1,265.5,-58.8
2015-08-15 11:29:00,LYR,13.92,75.64,7.90,64.23,-42.2,270.7,-54.8
2015-08-15 11:30:00,LYR,13.93,75.64,7.90,64.24,-55.3,273.1,-55.3
2015-08-15 11:31:00,LYR,13.95,75.64,7.90,64.24,-60.0,287.3,-53.9
2015-08-15 11:32:00,LYR,13.97,75.64,7.90,64.25,-65.6,288.1,-52.9
2015-08-15 11:33:00,LYR,13.98,75.64,7.90,64.26,-71.2,284.6,-52.6
2015-08-15 11:34:00,LYR,14.00,75.64,7.90,64.27,-80.6,283.8,-53.5
2015-08-15 11:35:00,LYR,14.01,75.64,7.90,64.27,-92.2,279.4,-54.1
2015-08-15 11:36:00,LYR,14.03,75.64,7.90,64.28,-96.4,286.8,-50.5
2015-08-15 11:37:00,LYR,14.05,75.64,7.90,64.29,-105.9,294.3,-47.4
2015-08-15 11:38:00,LYR,14.06,75.64,7.90,64.30,-114.4,306.5,-43.7
2015-08-15 11:39:00,LYR,14.08,75.64,7.90,64.31,-120.9,313.0,-39.4
2015-08-15 11:40:00,LYR,14.09,75.64,7.90,64.32,-125.0,312.1,-36.0
2015-08-15 11:41:00,LYR,14.11,75.64,7.90,64.33,-126.4,306.0,-34.0
2015-08-15 11:42:00,LYR,14.12,75.64,7.90,64.34,-129.6,302.3,-33.7
2015-08-15 11:43:00,LYR,14.14,75.64,7.90,64.35,-133.7,298.8,-35.6
2015-08-15 11:44:00,LYR,14.16,75.64,7.90,64.36,-135.8,293.6,-36.9
2015-08-15 11:45:00,LYR,14.17,75.64,7.90,64.37,-137.5,283.3,-40.5
2015-08-15 11:46:00,LYR,14.19,75.64,7.90,64.38,-137.9,281.6,-46.6
2015-08-15 11:47:00,LYR,14.20,75.64,7.90,64.39,-137.8,279.6,-52.7
2015-08-15 11:48:00,LYR,14.22,75.64,7.90,64.40,-127.1,284.2,-53.9
2015-08-15 11:49:00,LYR,14.23,75.64,7.90,64.41,-123.8,282.5,-57.1
2015-08-15 11:50:00,LYR,14.25,75.64,7.90,64.43,-116.9,268.1,-59.5
2015-08-15 11:51:00,LYR,14.26,75.64,7.90,64.44,-112.8,269.3,-61.4
2015-08-15 11:52:00,LYR,14.28,75.64,7.90,64.45,-109.9,270.6,-61.3
2015-08-15 11:53:00,LYR,14.30,75.64,7.90,64.46,-112.8,270.2,-62.7
2015-08-15 11:54:00,LYR,14.31,75.64,7.90,64.47,-111.7,279.0,-60.6
2015-08-15 11:55:00,LYR,14.33,75.64,7.90,64.49,-109.7,280.9,-58.4
2015-08-15 11:56:00,LYR,14.34,75.64,7.90,64.50,-110.3,276.2,-60.4
2015-08-15 11:57:00,LYR,14.36,75.64,7.90,64.51,-112.9,279.6,-63.2
2015-08-15 11:58:00,LYR,14.37,75.64,7.90,64.53,-117.1,280.0,-67.3
2015-08-15 11:59:00,LYR,14.39,75.64,7.90,64.54,-117.9,273.5,-72.5
2015-08-15 12:00:00,LYR,14.40,75.64,7.90,64.56,-119.4,264.3,-78.7
2015-08-15 12:01:00,LYR,14.42,75.64,7.90,64.57,-116.1,262.6,-83.4
2015-08-15 12:02:00,LYR,14.43,75.64,7.90,64.58,-114.7,266.7,-88.0
2015-08-15 12:03:00,LYR,14.45,75.64,7.90,64.60,-109.9,258.8,-91.8
2015-08-15 12:04:00,LYR,14.46,75.64,7.90,64.61,-105.8,264.9,-94.1
2015-08-15 12:05:00,LYR,14.48,75.64,7.90,64.63,-108.6,265.5,-98.0
2015-08-15 12:06:00,LYR,14.50,75.64,7.90,64.64,-104.0,253.9,-100.1
2015-08-15 12:07:00,LYR,14.51,75.64,7.90,64.66,-99.8,256.0,-103.0
2015-08-15 12:08:00,LYR,14.53,75.64,7.90,64.68,-96.7,258.0,-106.3
2015-08-15 12:09:00,LYR,14.54,75.64,7.90,64.69,-90.7,275.2,-108.3
2015-08-15 12:10:00,LYR,14.56,75.64,7.90,64.71,-67.8,279.5,-100.2
2015-08-15 12:11:00,LYR,14.57,75.64,7.90,64.73,-57.6,251.0,-99.1
2015-08-15 12:12:00,LYR,14.59,75.64,7.90,64.74,-56.4,231.9,-106.9
2015-08-15 12:13:00,LYR,14.60,75.64,7.90,64.76,-63.2,217.8,-120.1
2015-08-15 12:14:00,LYR,14.62,75.64,7.90,64.78,-69.7,214.8,-128.0
2015-08-15 12:15:00,LYR,14.63,75.64,7.90,64.79,-76.8,212.3,-137.9
2015-08-15 12:16:00,LYR,14.65,75.64,7.90,64.81,-71.5,227.2,-138.2
2015-08-15 12:17:00,LYR,14.66,75.64,7.90,64.83,-72.9,222.2,-140.6
2015-08-15 12:18:00,LYR,14.68,75.64,7.90,64.85,-69.6,235.3,-142.5
2015-08-15 12:19:00,LYR,14.69,75.64,7.90,64.87,-67.3,213.4,-145.0
2015-08-15 12:20:00,LYR,14.71,75.64,7.90,64.88,-67.4,189.4,-154.7
2015-08-15 12:21:00,LYR,14.72,75.64,7.90,64.90,-68.8,155.9,-169.2
2015-08-15 12:22:00,LYR,14.74,75.64,7.90,64.92,-74.1,138.5,-186.9
2015-08-15 12:23:00,LYR,14.75,75.64,7.90,64.94,-68.7,123.3,-196.7
2015-08-15 12:24:00,LYR,14.77,75.64,7.90,64.96,-64.9,124.9,-201.4
2015-08-15 12:25:00,LYR,14.78,75.64,7.90,64.98,-61.2,125.4,-201.1
2015-08-15 12:26:00,LYR,14.80,75.64,7.90,65.00,-63.8,122.4,-199.5
2015-08-15 12:27:00,LYR,14.81,75.64,7.90,65.02,-66.2,136.5,-196.5
2015-08-15 12:28:00,LYR,14.83,75.64,7.90,65.04,-67.4,162.5,-188.3
2015-08-15 12:29:00,LYR,14.84,75.64,7.90,65.06,-62.3,194.4,-172.8
2015-08-15 12:30:00,LYR,14.86,75.64,7.90,65.08,-58.1,207.0,-157.3
2015-08-15 12:31:00,LYR,14.87,75.64,7.90,65.10,-48.6,214.6,-141.7
2015-08-15 12:32:00,LYR,14.89,75.64,7.90,65.12,-51.9,202.9,-133.5
2015-08-15 12:33:00,LYR,14.90,75.64,7.90,65.15,-62.0,205.5,-132.5
2015-08-15 12:34:00,LYR,14.92,75.64,7.90,65.17,-69.1,208.5,-131.6
2015-08-15 12:35:00,LYR,14.93,75.64,7.90,65.19,-69.0,214.0,-128.5
2015-08-15 12:36:00,LYR,14.95,75.64,7.90,65.21,-71.1,227.2,-125.9
2015-08-15 12:37:00,LYR,14.96,75.64,7.90,65.23,-65.3,231.9,-118.2
2015-08-15 12:38:00,LYR,14.98,75.64,7.90,65.26,-64.1,223.2,-115.0
2015-08-15 12:39:00,LYR,14.99,75.64,7.90,65.28,-66.6,221.1,-116.1
2015-08-15 12:40:00,LYR,15.01,75.64,7.90,65.30,-68.3,216.8,-116.6
2015-08-15 12:41:00,LYR,15.02,75.64,7.90,65.32,-65.1,215.4,-115.8
2015-08-15 12:42:00,LYR,15.04,75.64,7.90,65.35,-60.1,210.3,-113.8
2015-08-15 12:43:00,LYR,15.05,75.64,7.90,65.37,-61.3,205.7,-114.6
2015-08-15 12:44:00,LYR,15.07,75.64,7.90,65.40,-58.4,198.7,-113.5
2015-08-15 12:45:00,LYR,15.08,75.64,7.90,65.42,-54.7,187.9,-113.3
2015-08-15 12:46:00,LYR,15.10,75.64,7.90,65.44,-59.0,182.8,-117.4
2015-08-15 12:47:00,LYR,15.11,75.64,7.90,65.47,-62.0,179.5,-120.0
2015-08-15 12:48:00,LYR,15.13,75.64,7.90,65.49,-66.3,183.4,-121.8
2015-08-15 12:49:00,LYR,15.14,75.64,7.90,65.52,-70.6,188.4,-122.1
2015-08-15 12:50:00,LYR,15.15,75.64,7.90,65.54,-71.3,184.1,-122.1
2015-08-15 12:51:00,LYR,15.17,75.64,7.90,65.57,-74.9,176.8,-125.0
2015-08-15 12:52:00,LYR,15.18,75.64,7.90,65.59,-70.9,161.5,-129.3
2015-08-15 12:53:00,LYR,15.20,75.64,7.90,65.62,-66.7,151.2,-134.3
2015-08-15 12:54:00,LYR,15.21,75.64,7.90,65.64,-65.6,145.7,-138.1
2015-08-15 12:55:00,LYR,15.23,75.64,7.90,65.67,-64.2,139.3,-142.4
2015-08-15 12:56:00,LYR,15.24,75.64,7.90,65.70,-62.9,129.7,-146.6
2015-08-15 12:57:00,LYR,15.26,75.64,7.90,65.72,-61.0,116.9,-152.5
2015-08-15 12:58:00,LYR,15.27,75.64,7.90,65.75,-58.3,107.0,-157.7
2015-08-15 12:59:00,LYR,15.29,75.64,7.90,65.78,-55.5,100.6,-162.5
2015-08-15 13:00:00,LYR,15.30,75.64,7.90,65.80,-55.7,101.6,-166.7
